Погода в Палм Кост

США     29°34′25″N   81°12′41″W
темп.,
°C
ветер,
м/с
пор.,
м/с
влажн.,
%
обл.,
%
осадки,
мм/ч
давл.,
гПа
погр.,
м
3 августа, вт
вт323:00+24ююв2396100 1.3 1017115
02:00+24ю269391 1.3 1015164
05:00+24зюз31094100 0.1 1014478
08:00+24юз31192100 0.4 1014623
11:00+25юз3108382 0.0 1015699
14:00+25ююз3889100 3.3 1014591
17:00+24юз3995100 10.2 1014494
20:00+24ююз31093100 10.3 1014472
4 августа, ср
ср423:00+23ююз21094100 0.3 1015359
02:00+23ююз299489 0.6 1014292
05:00+24юз31090100 0.1 1013388
08:00+24ююз31084100 0.1 1015535
11:00+27ююз41071100 0.0 1016685
14:00+28юз4868100 1.1 10161054
17:00+29ююз586199 0.4 10151270
20:00+26ююз497298 0.4 1016718
5 августа, чт
чт523:00+24ююз31079100 0.0 1017470
02:00+23ююз2108096 0.0 1017389
05:00+23ююз298539 0.3 1017367
08:00+23ю2108591 1.1 1018366
11:00+28ююз366262 0.0 1019885
14:00+34юз4641100 0.0 10182311
17:00+31зюз355243 0.1 10171144
20:00+27зюз266468 0.2 1018368
6 августа, пт
пт623:00+24юз117852 0.0 102026
02:00+24ююз128454 0.0 101957
05:00+23ююз11847 0.0 101917
08:00+25ююв137440 0.0 1020119
11:00+32ююв245226 0.0 10201238
14:00+34вюв444644 0.0 10181936
17:00+31вюв465930 0.0 1018751
20:00+26всв238775 4.1 101963
7 августа, сб
сб723:00+24юв269349 2.3 1019159
02:00+24ююв269456 2.4 1019156
05:00+24ю249423 0.1 101890
08:00+25ю138872 0.1 1019118
11:00+32ююв225666 0.2 10191286
14:00+31юв226598 3.8 10191061
17:00+27вюв258390 2.3 1018244
20:00+24с1498100 28.1 1018149